Flag for U.S.A. Weather past 2 weeks in Dover, Delaware, U.S.A.

Now
32 °F

Fog.


Feels Like: 32 °F
Forecast: 24 / 37 °F
Wind: No wind

Location: Dover Air Force Base

Current Time: Mar 2, 2015 at 6:14:14 AM

Latest Report: Mar 2, 2015 at 5:58 AM


Visibility: 6 mi

Pressure: 30.11 "Hg

Humidity: 100%

Dew point: 32 °F

Location of DoverLocation

Historic Weather in Dover — Graph

°F

Dover temperature yesterday

Maximum temperature yesterday: 33 °F (at 11:58 PM)
Minimum temperature yesterday: 18 °F (at 1:58 AM)
Average temperature yesterday: 27 °F

Past Weeks' High & Low Weather Summary

 TemperatureHumidityPressure
High43 °F (Feb 22, 2:58 PM)100% (Feb 17, 2:03 AM)30.87 "Hg (Feb 17, 2:03 AM)
Low2 °F (Feb 20, 6:58 AM)35% (Feb 20, 2:58 AM)29.76 "Hg (Feb 18, 3:58 PM)
Average22 °F69%30.21 "Hg
* Reported Feb 15 4:58 AM — Mar 2 4:58 AM, Dover, Weather by CustomWeather, © 2015

Note: Actual official high and low records may vary slightly from our data, if they occured in-between our weather recording intervals... More about our weather records

Advertising

Dover weather history for previous 24 hours

 ConditionsComfort  
Time TempWeatherWind HumidityBarometerVisibility
4:58 AM
Mon, Mar 2
32 °FFog.No wind100%30.10 "Hg6 mi
4:00 AM32 °FLight snow. Low clouds.No wind100%30.08 "Hg8 mi
2:58 AM32 °FLow clouds.No wind100%30.11 "Hg7 mi
1:58 AM33 °FFog.No wind100%30.15 "Hg4 mi
1:03 AM32 °FLow clouds.No wind100%30.15 "Hg4 mi
12:58 AM32 °FLow clouds.No wind100%30.17 "Hg8 mi
11:58 PM
Sun, Mar 1
33 °FLow clouds.No wind100%30.18 "Hg8 mi
10:58 PM32 °FLow clouds.No wind100%30.21 "Hg7 mi
10:03 PM32 °FIce fog.No wind100%30.24 "Hg5 mi
8:58 PM32 °FLight freezing rain. Ice fog.No wind100%30.27 "Hg3 mi
7:58 PM32 °FLight freezing rain. Ice fog.No wind100%30.30 "Hg4 mi
6:58 PM31 °FLight freezing rain. Ice fog.No wind100%30.33 "Hg6 mi
6:00 PM32 °FFreezing rain. Ice fog.No wind100%30.34 "Hg4 mi
4:58 PM31 °FLight freezing rain. Ice fog.2 mph100%30.38 "Hg5 mi
4:03 PM30 °FLight freezing rain. Ice fog.3 mph100%30.42 "Hg5 mi
3:58 PM30 °FLight freezing rain. Ice fog.3 mph100%30.43 "Hg5 mi
3:02 PM28 °FLight freezing rain. Ice fog.7 mph100%30.45 "Hg4 mi
1:58 PM28 °FLight freezing rain. Ice fog.No wind100%30.50 "Hg4 mi
12:58 PM28 °FFreezing rain. Ice fog.3 mph99%30.54 "Hg5 mi
11:58 AM26 °FSleet. Ice fog.7 mph100%30.58 "Hg5 mi
10:58 AM26 °FLight snow. Ice fog.6 mph96%30.64 "Hg5 mi
10:03 AM25 °FLight snow. Partly sunny.9 mph86%30.66 "Hg4 mi
9:58 AM26 °FLight snow. Scattered clouds.9 mph77%30.67 "Hg7 mi
8:59 AM27 °FSunny.6 mph69%30.67 "Hg10 mi
8:58 AM26 °FLight snow. Passing clouds.7 mph69%30.68 "Hg10 mi
7:58 AM25 °FPartly sunny.2 mph72%30.68 "Hg10 mi
6:58 AM22 °FPassing clouds.1 mph79%30.68 "Hg10 mi
Weather by CustomWeather, © 2015

See weather overviewHow to use our weather pages